Lid_Strength_Index
2 2 2 1 2 2 2 2 2 2 3 3 3 3 3 2 2 2 2 2 3 3 3 3 2 2 1 3 3 -1 -2 -1 -1 1 3 4 5 6 7 6 5 6 5 4 4 4 4
2 2 2 2 2 2 2 2 2 3 3 3 3 3 3 3 3 2 2 3 3 3 3 2 2 2 2 6 1 -1 0 1 1 2 3 3 4 4 6 6 6 5 5 5 5 5 4
2 2 2 3 2 2 2 3 3 2 2 3 3 3 3 3 3 3 3 3 3 2 3 2 2 1 3 5 1 0 1 1 2 2 3 3 3 4 4 6 5 5 7 6 6 5 5
3 3 3 3 3 3 4 3 3 3 3 3 3 3 3 3 3 3 3 3 3 3 2 2 1 1 4 3 1 2 1 2 2 2 2 2 3 4 5 4 6 7 7 9 6 5 5
3 3 3 3 3 3 3 3 4 4 4 4 3 3 3 3 3 3 3 3 2 1 1 2 1 2 5 2 4 2 1 3 3 3 3 3 4 5 4 7 8 7 10 8 7 6 6
4 4 4 3 3 3 3 3 4 4 4 4 4 4 4 4 3 3 3 2 1 1 1 1 1 4 3 5 3 3 2 3 4 4 5 5 5 6 6 7 11 9 9 8 8 6 6
4 4 4 4 4 4 3 4 4 4 5 4 4 4 4 4 4 3 3 1 3 4 2 4 4 4 4 3 2 3 2 4 5 6 8 6 8 9 7 6 6 7 8 9 7 6 7
4 4 4 4 4 4 4 4 4 5 5 5 4 4 4 4 4 4 3 3 4 3 6 3 4 4 3 3 5 4 2 5 5 7 6 7 9 7 6 7 7 8 9 9 7 6 6
4 4 4 4 5 4 4 5 5 5 4 5 5 4 4 4 4 3 2 4 2 2 5 5 5 5 4 3 5 5 3 4 6 7 6 8 7 6 7 8 9 8 9 8 9 7 6
4 4 4 4 4 4 5 5 5 5 5 5 5 4 4 4 5 1 3 2 2 2 8 7 7 5 4 4 6 3 3 4 5 7 6 7 5 7 7 8 8 10 7 7 8 9 11
4 4 4 4 4 4 4 5 6 6 5 5 5 4 4 5 1 3 2 2 2 2 15 7 7 3 4 5 5 5 2 4 6 6 6 8 7 8 8 7 6 8 6 7 8 9 9
4 4 4 4 4 4 5 5 6 6 6 6 5 5 4 3 1 2 2 2 2 10 15 9 7 8 7 6 6 4 5 3 4 6 6 6 4 6 6 6 6 6 7 7 8 9 13
4 4 3 4 4 4 5 5 6 6 6 7 7 6 5 2 3 1 1 3 10 13 7 9 9 8 8 7 7 6 6 6 8 9 9 7 7 5 5 7 6 7 9 13 13 13 14
6 5 4 4 4 5 6 6 6 6 6 7 7 7 4 2 2 2 3 6 13 9 8 7 8 8 9 7 7 7 7 8 6 7 9 10 11 7 6 7 8 8 9 13 17 16 14
7 7 6 6 5 5 6 6 7 7 7 8 8 3 3 1 2 2 6 10 10 8 9 9 8 10 9 8 9 8 8 8 7 6 9 10 10 6 6 6 6 8 10 8 12 11 13
7 7 7 6 6 6 6 6 7 7 8 8 5 4 3 2 2 3 7 10 9 8 8 8 11 9 11 9 10 10 9 7 9 6 5 7 11 7 7 6 6 7 6 11 13 18 16
7 7 7 7 7 6 7 7 7 7 8 8 4 6 3 2 2 6 9 8 8 7 7 9 10 10 10 10 10 10 10 7 6 7 5 6 9 9 7 8 9 9 10 9 9 11 16
7 7 7 7 7 6 7 7 7 8 9 8 6 8 3 2 8 7 9 9 10 9 8 8 8 9 10 10 11 10 10 8 5 6 8 6 9 12 10 7 6 7 9 9 15 15 12
7 8 7 7 7 7 7 7 8 8 9 8 9 8 4 5 9 9 9 9 9 10 9 10 10 9 8 10 11 10 9 6 5 6 7 7 10 14 12 9 9 10 10 9 8 9 13
7 7 7 7 7 7 7 8 8 8 9 8 9 10 8 7 8 10 10 10 10 9 9 9 9 9 10 10 9 10 8 6 5 5 5 5 9 12 15 12 10 13 12 10 13 14 13
7 7 8 7 7 7 7 7 8 8 8 8 7 9 9 11 10 9 9 9 10 10 9 9 10 10 10 12 10 9 8 7 6 4 5 6 11 10 9 9 9 10 9 9 11 10 13
7 7 8 7 8 7 7 7 8 8 9 7 10 10 9 10 9 10 10 10 10 10 10 10 11 10 10 11 10 10 8 7 8 6 6 6 10 9 10 9 9 10 9 9 9 9 9
7 7 7 8 8 7 7 7 8 8 8 8 8 8 10 10 10 11 10 10 11 10 10 10 11 11 11 9 8 7 7 6 6 7 7 8 9 11 14 9 10 14 10 9 9 8 8
6 7 7 7 7 7 6 7 8 8 9 8 8 10 11 12 11 11 10 10 11 10 11 10 9 10 8 6 6 6 6 6 6 6 5 8 9 10 14 12 18 9 7 7 8 7 7
6 6 7 7 7 7 7 7 8 8 8 8 7 9 10 12 11 11 10 10 10 9 10 10 10 8 7 8 9 9 9 9 9 8 7 7 9 14 16 15 12 10 8 9 10 10 6
4 5 6 7 7 8 7 6 7 8 8 9 7 7 9 12 11 11 11 10 11 11 11 10 8 7 7 8 9 12 12 10 12 11 7 8 9 14 14 18 18 10 8 6 6 12 7
4 5 6 7 7 7 7 6 6 7 8 8 8 6 9 12 10 10 11 11 10 11 12 10 10 8 7 9 11 11 11 9 12 13 14 13 13 15 14 16 12 8 6 5 14 12 7
3 4 5 6 6 7 7 6 5 6 7 8 8 6 10 11 11 10 9 10 10 10 12 9 9 8 8 10 10 10 11 10 10 9 10 11 13 14 14 16 17 6 7 12 8 6 5
3 3 3 5 6 6 6 6 6 5 7 7 10 7 7 10 11 9 8 7 8 8 9 8 8 8 8 8 8 9 10 9 10 13 7 11 10 13 11 11 6 5 6 5 5 6 5